Miscellaneous Local Product
Issued by NWS North Platte, NE

Home | Current Version | Previous Version | Graphics & Text | Print | Product List | Glossary On
Versions: 1 2 3 4 5 6 7 8 9 10 11 12 13 14 15 16 17 18 19 20 21 22 23 24 25 26 27 28 29 30 31 32 33 34 35 36 37 38 39 40 41 42 43 44 45 46 47 48 49 50
000
AXUS43 KLBF 260910
MISLBF


WESTERN AND NORTH CENTRAL NEBRASKA HOURLY WEATHER ROUNDUP
NATIONAL WEATHER SERVICE NORTH PLATTE NE
400 AM CDT THU APR 26 2018

NOTE: "FAIR" INDICATES FEW OR NO CLOUDS BELOW 12,000 FEET WITH NO
SIGNIFICANT WEATHER AND/OR OBSTRUCTIONS TO VISIBILITY.

NOTE: STATIONS NOT REPORTING VARIABLES SUCH AS SKY/WEATHER OR
PRESSURE ARE PROVIDED BY RAWS AND APRS NETWORKS AND ARE NOT UNDER
NATIONAL WEATHER SERVICE QUALITY CONTROL.

...OBSERVATIONS IN AND NEAR THE EASTERN PANHANDLE OF NEBRASKA...

CITY           SKY/WX    TMP DP  RH WIND       PRES   REMARKS
PINE RIDGE     MOCLDY    52  32  46 N20G29    30.01R
GORDON         FAIR      50  32  49 N18       29.98R
CHADRON        MOCLDY    45  32  60 W7        30.05R
ALLIANCE       CLOUDY    47  31  53 N17       29.99R
SIDNEY         CLOUDY    52  27  38 N23G35    29.97R
CRESCENT LAKE    N/A     49  33  53 N13         N/A
$$

...OBSERVATIONS IN NORTHERN NEBRASKA AND FAR SOUTHERN SOUTH DAKOTA...

CITY           SKY/WX    TMP DP  RH WIND       PRES   REMARKS
WINNER         FAIR      49  32  52 W10       29.87R
VALENTINE      CLOUDY    45  33  63 W7        29.90R
AINSWORTH      CLOUDY    44  33  66 SW12      29.90F
O`NEILL        CLOUDY    45  36  71 SW7       29.91S
THEDFORD       CLOUDY    44  33  65 CALM      29.94F
BROKEN BOW     CLOUDY    41  34  76 S5        29.93R
ORD            MOCLDY    36  33  89 CALM      29.95R
ALBION         CLOUDY    42  36  79 S7        29.95F
VALENTINE NWR    N/A     42  31  64 S6          N/A
HALSEY           N/A     45  32  59 S5          N/A
BUTTE            N/A     45  35  68 SW9         N/A
CHAMBERS         N/A     42  33  70 SW7         N/A
EWING            N/A     41  34  77 SW3         N/A
$$

...OBSERVATIONS IN SOUTHWEST NEBRASKA AND FAR NORTHEAST COLORADO...

CITY           SKY/WX    TMP DP  RH WIND       PRES   REMARKS
WRAY           FAIR      45  34  65 W9        29.94R
HOLYOKE        FAIR      41  36  81 SW5       29.92F
IMPERIAL       CLOUDY    41  34  76 SW7       29.93S
OGALLALA       CLOUDY    42  36  80 CALM      29.91R
NORTH PLATTE   CLOUDY    46  33  60 NE3       29.94R
MCCOOK         MOCLDY    39  34  82 SW7       29.93F WCI  34
LEXINGTON      CLOUDY    41  34  76 S5        29.94F
STAPLETON        N/A     38  31  77 CALM        N/A
GOTHENBURG       N/A     46  32  58 S6          N/A
CALLAWAY         N/A     41  36  83 S13         N/A
$$

...OBSERVATIONS IN CENTRAL LINCOLN COUNTY AREA...

CITY           SKY/WX    TMP DP  RH WIND       PRES   REMARKS
N.P. AIRPORT   CLOUDY    46  33  60 NE3       29.94R
N.P. DOWNTOWN    N/A     46  34  63 CALM        N/A
N.P. SOUTHEAST   N/A     47  33  59 CALM        N/A
N.P. HILLCREST   N/A     47  34  61 CALM        N/A
$$

...OBSERVATIONS ACROSS THE ROCKIES AND WESTERN HIGH PLAINS...

CITY           SKY/WX    TMP DP  RH WIND       PRES   REMARKS
RAPID CITY     PTCLDY    47  32  56 N24G31    30.06R
SCOTTSBLUFF    MOCLDY    50  32  50 NW16      30.06R
CHEYENNE       PTCLDY    43  25  49 N16G29    30.11R
DENVER         CLOUDY    46  26  45 N9        30.06R
BERTHOUD PASS  FAIR      23  12  63 NW39G53   30.23R WCI   3
MONARCH PASS   CLEAR     28   3  34 W23       30.38S WCI  14
ASPEN          PTCLDY    32  17  54 S6        30.18R WCI  26
STEAMBOAT      CLOUDY    37  22  54 CALM      30.16S
LARAMIE        MOCLDY    35  22  58 NW14      30.17R WCI  26
CASPER         LGT RAIN  40  35  83 NE3       30.25R
$$

...OBSERVATIONS ACROSS THE NORTHERN PLAINS...

CITY           SKY/WX    TMP DP  RH WIND       PRES   REMARKS
BISMARCK       CLEAR     44  31  60 N10       30.02R
FARGO          FAIR      44  35  70 N22       29.82R
PIERRE         CLOUDY    51  36  56 N24G30    29.89R
SIOUX FALLS    CLOUDY    45  31  58 S10       29.88F
$$

...OBSERVATIONS ACROSS THE CENTRAL AND SOUTHERN PLAINS...

CITY           SKY/WX    TMP DP  RH WIND       PRES   REMARKS
OMAHA          CLOUDY    42  36  79 SE3       29.97S
GRAND ISLAND   PTCLDY    42  37  82 SW9       29.97F
KANSAS CITY    PTCLDY    42  40  92 W7        29.98S
WICHITA        PTCLDY    36  36 100 W6        30.02R WCI  31
DODGE CITY     CLEAR     34  31  88 S8        30.00F WCI  27
OKLAHOMA CITY  CLEAR     39  38  96 NW5       30.03S
DALLAS         CLEAR     49  44  83 NW8       30.02S
AMARILLO       CLEAR     41  32  70 S13       30.04F
$$




USA.gov is the U.S. government's official web portal to all federal, state and local government web resources and services.